Regional Weather Roundup
Issued by NWS

Home | Current Version | Previous Version | Graphics & Text | Print | Product List | Glossary On
Versions: 1 2 3 4 5 6 7 8 9 10 11 12 13 14 15 16 17 18 19 20 21 22 23 24 25 26 27 28 29 30 31 32 33 34 35 36 37 38 39 40 41 42 43 44 45 46 47 48 49 50
000
ASUS45 KCYS 252010
RWRWY

WYOMING REGIONAL WEATHER ROUNDUP
NATIONAL WEATHER SERVICE CHEYENNE WY
200 PM MDT MON MAY 25 2015

NOTE:  "FAIR" INDICATES FEW OR NO CLOUDS BELOW 12,000 FEET
WITH NO SIGNIFICANT WEATHER AND/OR OBSTRUCTIONS TO VISIBILITY.

WYZ001-252100-
YELLOWSTONE NATIONAL PARK

CITY           SKY/WX    TMP DP  RH WIND       PRES   REMARKS
LK YELLOWSTONE   N/A     49  34  56 VRB5      30.04S
W YELLOWSTONE  NOT AVBL

$$
WYZ002>013-054>058-071-098>099-252100-
NORTHERN WYOMING

CITY           SKY/WX    TMP DP  RH WIND       PRES   REMARKS
JACKSON        CLOUDY    57  37  47 SW12G21   29.98R
CODY           CLOUDY    59  46  63 N12       29.94S
GREYBULL       FAIR      68  43  40 NW16      29.89F
WORLAND        PTSUNNY   62  47  57 VRB5      29.91S
SHERIDAN       CLOUDY    61  47  59 CALM      29.93S
BUFFALO        CLOUDY    56  47  71 N6        29.96S
GILLETTE       CLOUDY    57  49  74 NW13      29.92R
HULETT         CLOUDY    54  52  94 NE9       29.92R
NEWCASTLE      CLOUDY    61  45  55 NW15      29.87R

$$
WYZ014>020-022>026-101>103-252100-
CENTRAL WYOMING

CITY           SKY/WX    TMP DP  RH WIND       PRES   REMARKS
BIG PINEY      FAIR      49  40  71 SW7       30.03S
PINEDALE       CLOUDY    46  41  81 SW10      30.03S
DUBOIS         MOCLDY    55  32  41 CALM      29.97F
LANDER         PTSUNNY   60  44  55 VRB5      29.95S
RIVERTON       CLOUDY    57  44  62 CALM      29.97S
CASPER         PTSUNNY   58  45  62 N12       29.95R
DOUGLAS        CLOUDY    58  47  66 N14       29.93R

$$
WYZ021-027>030-104>119-252100-
SOUTHERN WYOMING

CITY           SKY/WX    TMP DP  RH WIND       PRES   REMARKS
EVANSTON       CLOUDY    47  41  80 S8        30.06F
KEMMERER       LGT RAIN  41  37  87 NE10      30.05R
FORT BRIDGER   LGT RAIN  54  46  76 W7        30.06F
ROCK SPRINGS   PTSUNNY   54  41  61 SW9       30.01S
DIXON          FAIR      54  42  65 W10       30.04F
RAWLINS        FAIR      56  44  64 W15       30.00S
SARATOGA       MOCLDY    54  39  58 NW12G20   30.01S
LARAMIE        FAIR      50  39  66 N23G36    29.97R
CHEYENNE       FAIR      52  44  74 N13G22    29.94S
TORRINGTON     LGT RAIN  56  51  84 W9        29.87S
PINE BLUFFS    DRIZZLE   50  45  81 NW17G23   29.93S

$$


USA.gov is the U.S. government's official web portal to all federal, state and local government web resources and services.